Regional Weather Roundup
Issued by NWS

Home | Current Version | Previous Version | Text Only | Print | Product List | Glossary Off
Versions: 1 2 3 4 5 6 7 8 9 10 11 12 13 14 15 16 17 18 19 20 21 22 23 24 25 26 27

000
ASUS45 KSLC 180410
RWRUT

UTAH REGIONAL WEATHER ROUNDUP
NATIONAL WEATHER SERVICE SALT LAKE CITY UT
900 PM MST FRI NOV 17 2017

UTZ001>011-023>025-180500-

NORTHERN UTAH

CITY           SKY/WX    TMP DP  RH WIND       PRES   REMARKS
BRIGHAM CITY   CLEAR     35  19  53 NW9       30.25R WCI  28
HILL AFB       CLEAR     32  19  58 NW10      30.23R WCI  24
LOGAN          PTCLDY    35  20  54 NW9       30.22R WCI  28
OGDEN          PTCLDY    32  21  64 NW6       30.23R WCI  26
SALT LAKE CITY MOCLDY    36  26  67 N5        30.25R WCI  32
TOOELE VALLEY  CLEAR     34  25  69 N7        30.28R WCI  28
WENDOVER       CLEAR     35  17  47 N6        30.30R WCI  30
HEBER CITY     CLOUDY    32  21  64 SW3       30.18R
WEST JORDAN    CLOUDY    34  26  70 NW12G21   30.25R WCI  26

$$

UTZ011>015-024>027-180500-

CENTRAL/NORTHEAST UTAH

CITY           SKY/WX    TMP DP  RH WIND       PRES   REMARKS
PROVO AIRPORT  PTCLDY    36  21  54 NW17      30.26R WCI  26
MOAB/CANYONLAN MOCLDY    41  18  39 W30G39    30.08R
DELTA          PTCLDY    30  25  80 NE3       30.28R
PRICE          PTCLDY    32  16  51 NW17G28   30.13R WCI  21
ROOSEVELT      CLEAR     32  19  59 W12       30.12R WCI  23
VERNAL         CLEAR     34   4  28 NW7       30.08R WCI  28

$$

UTZ013>016-019>022-027-180500-

SOUTHERN UTAH

CITY           SKY/WX    TMP DP  RH WIND       PRES   REMARKS
BRYCE CANYON   PTCLDY    26  22  84 NW10      30.19R WCI  16
CEDAR CITY     PTCLDY    31  26  82 N9        30.23R WCI  23
MILFORD        PTCLDY    32  29  88 N12       30.26R WCI  23
ST GEORGE      MOCLDY    54  29  38 E15       30.15R
HANKSVILLE     PTCLDY    41  18  38 W10       30.17R
BLANDING         N/A     37  26  66 NW20G40   30.08R WCI  26

$$

REGIONAL REPORTS     COLORADO/ARIZONA

CITY           SKY/WX    TMP DP  RH WIND       PRES   REMARKS
CRAIG, CO      CLOUDY    29  25  85 W7        30.06R WCI  22
GRAND JUNCTION CLOUDY    38  34  85 SE9       30.04R WCI  31
RIFLE, CO      LGT SNOW  32  32 100 NW3       30.08R FOG
MONTROSE, CO   LGT SNOW  34  31  88 NW25G39   30.09R FOG     WCI  21
CORTEZ, CO     CLOUDY    39  30  70 NW25G39   30.01R WCI  28
COLORADO CITY    N/A     45  32  61 NW13G23   30.16R
PAGE, AZ       CLOUDY    49  34  56 W13G18    30.10R
GRAND CANYON   CLOUDY    43  34  70 SW6       30.15R
KINGMAN, AZ    CLEAR     58  38  47 SW10      30.07R
FLAGSTAFF, AZ  PTCLDY    35  32  88 NE3       30.19R

$$

REGIONAL REPORTS    NEVADA/IDAHO/WYOMING

CITY           SKY/WX    TMP DP  RH WIND       PRES   REMARKS
LAS VEGAS, NV  PTCLDY    66  12  12 N26G41    30.05R
ELY, NY        PTCLDY    22  17  81 W6        30.28R WCI  14
ELKO, NV       CLEAR     27  21  78 W3        30.30R
POCATELLO, ID  CLEAR     31  25  78 SW18      30.21R WCI  19
BURLEY, ID     CLEAR     32  24  72 W10       30.25R WCI  24
FORT BRIDGER,  MOCLDY    21  19  93 W16       30.14R WCI   7
EVANSTON, WY   CLOUDY    20  13  74 W14       30.13R WCI   7
ROCK SPRINGS,  CLEAR     22  16  78 W18G28    30.06R WCI   7

$$




USA.gov is the U.S. government's official web portal to all federal, state and local government web resources and services.